Watsonville, CA

1:20 AM PDT on August 22, 2017 (GMT -0700)
Watsonville Municipal

Weather History for KWVI - March, 2014

Change the Weather History Date:

Monday, March 24, 2014

  Actual Average Record
Temperature  
Mean Temperature 55 °F 54 °F  
Max Temperature 69 °F 64 °F 72 °F (2015)
Min Temperature 41 °F 43 °F 37 °F (2009)
Degree Days  
Heating Degree Days 10    
Month to date heating degree days 171  
Since 1 July heating degree days 1910  
Cooling Degree Days 0    
Month to date cooling degree days 0  
Year to date cooling degree days 0  
Growing Degree Days 4 (Base 50)    
Moisture  
Dew Point 46 °F    
Average Humidity 74    
Maximum Humidity 100    
Minimum Humidity 48    
Precipitation  
Precipitation 0.00 in - 1.23 in (2011)
Month to date precipitation 0.89  
Year to date precipitation 5.64  
Since 1 July precipitation 6.71  
Sea Level Pressure  
Sea Level Pressure 30.11 in    
Wind  
Wind Speed 4 mph (WSW)    
Max Wind Speed 12 mph    
Max Gust Speed 28 mph    
Visibility 7 miles    
Events Fog    
T = Trace of Precipitation, MM = Missing Value Source: NWS Daily Summary

Daily Weather History Graph

Daily Weather History Graph

Search for Another Location

Airport or City:

Trip Planner

Search our weather history database for the weather conditions in past years. The results will help you decide how hot, cold, wet, or windy it might be!

Date:

Astronomy

Mar. 24, 2014 Rise Set
Actual Time 7:04 AM PDT 7:22 PM PDT
Civil Twilight 6:38 AM PDT 7:48 PM PDT
Nautical Twilight 6:08 AM PDT 8:19 PM PDT
Astronomical Twilight 5:37 AM PDT 8:50 PM PDT
Moon 2:31 AM PDT (3/24) 1:01 PM PDT (3/24)
Length of Visible Light 13h 09m
Length of Day
12h 18m
Last Quarter, 42% of the Moon is Illuminated
Mar 24
Last Quarter
Mar 30
New
Apr 7
First Quarter
Apr 15
Full
Apr 22
Last Quarter

Hourly Weather History & Observations

Time (PDT) Temp. Windchill Dew Point Humidity Pressure Visibility Wind Dir Wind Speed Gust Speed Precip Events Conditions
12:03 AM 50.0 °F - 48.2 °F 94% 30.13 in 9.0 mi Calm Calm - N/A   Overcast
12:53 AM 50.0 °F - 48.0 °F 93% 30.13 in 5.0 mi Calm Calm - N/A   Overcast
1:01 AM 48.2 °F - 48.2 °F 100% 30.13 in 3.0 mi Calm Calm - N/A   Overcast
1:11 AM 50.0 °F - 48.2 °F 94% 30.13 in 2.5 mi Calm Calm - N/A   Overcast
1:17 AM 48.2 °F - 48.2 °F 100% 30.13 in 1.2 mi Calm Calm - N/A   Overcast
1:26 AM 48.2 °F - 48.2 °F 100% 30.12 in 0.8 mi Calm Calm - N/A   Mist
1:51 AM 46.4 °F - 44.6 °F 93% 30.12 in 1.5 mi Calm Calm - N/A   Overcast
1:53 AM 46.0 °F - 45.0 °F 96% 30.12 in 2.0 mi Calm Calm - N/A   Overcast
1:58 AM 46.4 °F - 44.6 °F 93% 30.12 in 1.2 mi Calm Calm - N/A   Overcast
2:10 AM 46.4 °F - 44.6 °F 93% 30.12 in 0.8 mi Calm Calm - N/A   Mist
2:18 AM 44.6 °F 43.1 °F 44.6 °F 100% 30.12 in 1.5 mi North 3.5 mph - N/A   Overcast
2:27 AM 44.6 °F - 44.6 °F 100% 30.12 in 2.5 mi Calm Calm - N/A   Overcast
2:31 AM 46.4 °F - 44.6 °F 93% 30.12 in 1.2 mi Calm Calm - N/A   Overcast
2:40 AM 46.4 °F 45.2 °F 44.6 °F 93% 30.12 in 0.5 mi NW 3.5 mph - N/A Fog Fog
2:51 AM 44.6 °F 43.1 °F 44.6 °F 100% 30.11 in 1.0 mi NW 3.5 mph - N/A   Mist
2:53 AM 45.0 °F 43.5 °F 44.1 °F 97% 30.12 in 1.5 mi NW 3.5 mph - N/A   Mostly Cloudy
2:55 AM 44.6 °F 43.1 °F 44.6 °F 100% 30.11 in 4.0 mi NW 3.5 mph - N/A   Mostly Cloudy
3:04 AM 44.6 °F 42.2 °F 42.8 °F 93% 30.11 in 10.0 mi WNW 4.6 mph - N/A   Scattered Clouds
3:53 AM 43.0 °F - 42.1 °F 97% 30.10 in 7.0 mi Calm Calm - N/A   Clear
4:53 AM 45.0 °F - 43.0 °F 93% 30.11 in 10.0 mi Calm Calm - N/A   Clear
5:53 AM 42.1 °F - 39.9 °F 92% 30.11 in 10.0 mi Calm Calm - N/A   Clear
6:53 AM 42.1 °F 40.2 °F 39.9 °F 92% 30.12 in 10.0 mi NW 3.5 mph - N/A   Clear
7:53 AM 45.0 °F 42.6 °F 41.0 °F 86% 30.13 in 10.0 mi WNW 4.6 mph - N/A   Clear
8:53 AM 52.0 °F - 46.0 °F 80% 30.14 in 10.0 mi Calm Calm - N/A   Clear
9:53 AM 55.9 °F - 46.9 °F 72% 30.15 in 10.0 mi South 4.6 mph - N/A   Clear
10:53 AM 60.1 °F - 48.0 °F 64% 30.16 in 10.0 mi Calm Calm - N/A   Clear
11:53 AM 63.0 °F - 48.9 °F 60% 30.15 in 10.0 mi South 5.8 mph - N/A   Clear
12:53 PM 64.0 °F - 48.0 °F 56% 30.14 in 10.0 mi South 6.9 mph - N/A   Clear
1:53 PM 66.0 °F - 48.9 °F 54% 30.11 in 10.0 mi Variable 5.8 mph - N/A   Clear
2:53 PM 66.0 °F - 46.0 °F 48% 30.09 in 10.0 mi SSW 8.1 mph - N/A   Clear
3:53 PM 64.0 °F - 48.9 °F 58% 30.07 in 10.0 mi South 9.2 mph - N/A   Clear
4:53 PM 61.0 °F - 52.0 °F 72% 30.06 in 10.0 mi SSE 6.9 mph - N/A   Clear
5:53 PM 59.0 °F - 51.1 °F 75% 30.05 in 10.0 mi South 6.9 mph - N/A   Clear
6:53 PM 55.9 °F - 50.0 °F 80% 30.04 in 10.0 mi SSE 6.9 mph - N/A   Clear
7:53 PM 54.0 °F - 48.9 °F 83% 30.04 in 10.0 mi SE 4.6 mph - N/A   Clear
8:53 PM 53.1 °F - 48.9 °F 86% 30.06 in 10.0 mi Calm Calm - N/A   Clear
9:53 PM 52.0 °F - 48.0 °F 86% 30.06 in 10.0 mi Calm Calm - N/A   Clear
10:53 PM 50.0 °F - 46.9 °F 89% 30.06 in 10.0 mi West 3.5 mph - N/A   Clear
11:53 PM 48.9 °F - 46.0 °F 90% 30.06 in 10.0 mi Calm Calm - N/A   Clear